Harrow, Ontario

12:24 AM EST on November 19, 2017 (GMT -0500)
Harrow

Weather History for CXHA - August, 2014

Change the Weather History Date:

Sunday, August 17, 2014

  Actual Average (CYQG) Record (CYQG)
Temperature  
Mean Temperature 67 °F -  
Max Temperature 71 °F 76 °F 87 °F (1999)
Min Temperature 63 °F 61 °F 57 °F (2013)
Cooling Degree Days 2    
Growing Degree Days 17 (Base 50)    
Moisture  
Dew Point 61 °F    
Average Humidity 79    
Maximum Humidity 93    
Minimum Humidity 65    
Precipitation  
Precipitation 0.00 in - - ()
Sea Level Pressure  
Sea Level Pressure 29.94 in    
Wind  
Wind Speed 3 mph ()    
Max Wind Speed 7 mph    
Max Gust Speed -    
Averages and records for this station are not official NWS values.
T = Trace of Precipitation, MM = Missing Value Source: Averaged Metar Reports

Daily Weather History Graph

Daily Weather History Graph

Search for Another Location

Airport or City:

Trip Planner

Search our weather history database for the weather conditions in past years. The results will help you decide how hot, cold, wet, or windy it might be!

Date:

Astronomy

Aug. 17, 2014 Rise Set
Actual Time 6:41 AM EDT 8:29 PM EDT
Civil Twilight 6:11 AM EDT 8:58 PM EDT
Nautical Twilight 5:35 AM EDT 9:35 PM EDT
Astronomical Twilight 4:55 AM EDT 10:14 PM EDT
Moon 12:05 AM EDT (8/17) 2:34 PM EDT (8/17)
Length of Visible Light 14h 47m
Length of Day
13h 47m
Waning Gibbous, 48% of the Moon is Illuminated
Aug 17
Waning Gibbous
Aug 25
New
Sep 2
First Quarter
Sep 8
Full
Sep 15
Last Quarter

Hourly Weather History & Observations

Time (EDT) Temp. Dew Point Humidity Pressure Visibility Wind Dir Wind Speed Gust Speed Precip Events Conditions
12:00 AM 70.9 °F 67.3 °F 88% 29.87 in - West 6.9 mph - N/A   Unknown
1:00 AM 71.2 °F 66.7 °F 86% 29.88 in - NNW 1.2 mph - N/A   Unknown
2:00 AM 69 °F 65 °F 83% 29.90 in - NNW 2.3 mph - -  
2:00 AM 69.3 °F 64.9 °F 86% 29.90 in - NNW 2.3 mph - N/A   Unknown
3:00 AM 67.6 °F 65.5 °F 93% 29.90 in - North 2.3 mph - N/A   Unknown
4:00 AM 63.9 °F 60.4 °F 89% 29.91 in - NE 6.9 mph - N/A   Unknown
5:00 AM 63.9 °F 61.5 °F 92% 29.92 in - ENE 1.2 mph - N/A   Unknown
6:00 AM 64.0 °F 61.9 °F 93% 29.93 in - ENE 1.2 mph - N/A   Unknown
8:00 AM 64 °F 61 °F 87% 29.96 in - ENE 3.5 mph - -  
8:00 AM 63.3 °F 61.0 °F 92% 29.96 in - ENE 3.5 mph - N/A   Unknown
9:00 AM 65.1 °F 59.9 °F 83% 29.97 in - ENE 1.2 mph - N/A   Unknown
10:00 AM 65.1 °F 61.5 °F 88% 29.99 in - East 1.2 mph - N/A   Unknown
11:00 AM 66.9 °F 62.1 °F 84% 29.99 in - ENE 3.5 mph - N/A   Unknown
12:00 PM 69.6 °F 60.6 °F 73% 29.98 in - East 4.6 mph - N/A   Unknown
1:00 PM 71.2 °F 59.9 °F 67% 29.97 in - SE 4.6 mph - N/A   Unknown
2:00 PM 71 °F 62 °F 65% 29.97 in - SSE 6.9 mph - -  
2:00 PM 71.1 °F 59.9 °F 68% 29.97 in - SSE 6.9 mph - N/A   Unknown
3:00 PM 71.6 °F 60.8 °F 69% 29.97 in - SSE 6.9 mph - N/A   Unknown
4:00 PM 71.8 °F 62.4 °F 72% 29.96 in - SSE 6.9 mph - N/A   Unknown
5:00 PM 71.8 °F 61.2 °F 69% 29.96 in - SSE 6.9 mph - N/A   Unknown
6:00 PM 70.0 °F 59.0 °F 68% 29.95 in - SE 4.6 mph - N/A   Unknown
7:00 PM 69.3 °F 57.6 °F 66% 29.95 in - SSE 3.5 mph - N/A   Unknown
8:00 PM 68 °F 60 °F 67% 29.94 in - SE 1.2 mph - -  
8:00 PM 68.2 °F 59.5 °F 74% 29.94 in - SE 1.2 mph - N/A   Unknown
9:00 PM 66.9 °F 59.2 °F 76% 29.94 in - Calm Calm - N/A   Unknown
10:00 PM 65.8 °F 59.4 °F 80% 29.96 in - Calm Calm - N/A   Unknown
11:00 PM 63.9 °F 59.4 °F 85% 29.96 in - NE 2.3 mph - N/A   Unknown